Retour au catalogue

USA 314

ActifMilitaireSSO
NORAD 48247·PAYLOAD·🇺🇸 United States

Lancé Apr 26, 2021 depuis Vandenberg Space Force Base

Loading…

Prochains Passages (prochaines 24 heures)

TLE

PériméSource: Mike McCants

Époque: Aug 22, 2026, 23:23 UTC

1 48247U 21032A   26234.97495525 0.00000050  00000-0  67998-5 0    08
2 48247  98.0205 349.5991 0157010   4.1627 355.8371 14.70576598    09

Suivez USA 314 en temps réel avec AllMySat

Download on the App Store